World > North America > United States > Ohio

Delhi, Ohio Regional Weather

Lat: 39.09N, Lon: 84.61W
Wx Zone: OHZ077Web Search

Helpful Tip: Type the letters wx in the search engine next time you need to find us.

Feedback


°F Click to change Delhi hourly weather to Imperial units.Click to change Delhi hourly weather to Metric units. °C
Delhi Weather Map
UTC Time: 5/6/2021, 02:51
Your Time:

Delhi, OH Regional Weather

Expires:202105060300;;661516
ASUS41 KCLE 060212
RWRCLE
OHIO REGIONAL WEATHER ROUNDUP
NATIONAL WEATHER SERVICE WILMINGTON, OH
1000 PM EDT WED MAY 05 2021

NOTE: "FAIR" INDICATES FEW OR NO CLOUDS BELOW 12,000 FEET WITH NO
SIGNIFICANT WEATHER AND/OR OBSTRUCTIONS TO VISIBILITY.


OHZ042-051>053-060>062-070>072-077>081-060300-
  SOUTHWEST OHIO
  
CITY           SKY/WX    TMP DP  RH WIND       PRES   REMARKS
CINC-COVINGTON FAIR      52  35  52 NW6       30.12R                  
CINC-LUNKEN    FAIR      48  42  80 CALM      30.13R                  
HAMILTON       FAIR      47  42  83 CALM      30.14R                  
DAYTON         MOCLDY    53  36  52 NW5       30.13R                  
WRIGHT-PAT AFB MOCLDY    50  39  65 CALM      30.12R                  
DAYTON GENERAL FAIR      52  37  56 N5        30.11R                  
WILMINGTON     FAIR      47  39  74 CALM      30.12R                  
$$


SKY/WX - Weather  TMP - Temperature  DP - Dew Point  RH - Relative Humidity
WIND - Wind Direction/Speed PRES - Barometric Pressure VSB - Visibility
WCI - Wind Chill Index E13G22 Wind - East Wind 13 mph/Gusts of 22 mph